Location: Ku?niki
(51.4449°N, 17.8974°E)
Time: 13:13:27
(UTC+00:00)

POLYITAN 1 - Pass Details

Date: 29 June 2022
Orbit: 586 x 605 km, 98.0° (Epoch: 17 August)

Event Time Altitude Azimuth Distance (km) Brightness Sun altitude
Rises 23:29:50 0° 28° (NNE) 2,860 ? -14.9°
Reaches altitude 10° 23:32:44 10° 49° (NE) 1,954 ? -14.8°
Maximum altitude 23:35:28 17° 90° (E) 1,565 ? -14.8°
Drops below altitude 10° 23:38:12 10° 130° (SE) 1,950 ? -14.7°
Enters shadow 23:38:44 - 135° (SE) 2,093 ? -14.7°
